This is the latest recevied weather packets stored in our database for station/object LA4GY-1. If no packets are shown the sender has not sent any weather packets the latest 10 day(s).
| Time | Temp. | Humidity | Pressure | Rain* | Wind** | Luminosity | Snow |
|---|---|---|---|---|---|---|---|
| 1778146806 | 6.11° C | 78% | 1015.3 hPa | 0 mm | - | - | - |
| 1778144406 | 5.56° C | 79% | 1015.1 hPa | 0 mm | - | - | - |
| 1778142605 | 5.56° C | 81% | 1015 hPa | 0 mm | - | - | - |
| 1778140805 | 5° C | 85% | 1014.9 hPa | 0 mm | - | - | - |
| 1778139606 | 4.44° C | 87% | 1014.8 hPa | 0 mm | - | - | - |
| 1778133605 | 3.89° C | 90% | 1014.1 hPa | 0 mm | - | - | - |
| 1778133006 | 3.89° C | 90% | 1014.1 hPa | 0 mm | - | - | - |
| 1778132406 | 3.89° C | 90% | 1014 hPa | 0 mm | - | - | - |
| 1778128805 | 3.89° C | 91% | 1013.7 hPa | 0 mm | - | - | - |
| 1778128205 | 3.33° C | 91% | 1013.7 hPa | 0 mm | - | - | - |
| 1778125805 | 2.78° C | 92% | 1013.6 hPa | 0 mm | - | - | - |
| 1778125206 | 2.78° C | 92% | 1013.6 hPa | 0 mm | - | - | - |
| 1778123406 | 2.22° C | 91% | 1013.4 hPa | 0 mm | - | - | - |
| 1778121005 | 2.22° C | 92% | 1013.2 hPa | 0 mm | - | - | - |
| 1778119205 | 2.22° C | 91% | 1013.2 hPa | 0 mm | - | - | - |
| 1778115005 | 2.78° C | 91% | 1012.9 hPa | 0 mm | - | - | - |
| 1778112605 | 2.78° C | 92% | 1012.7 hPa | 0 mm | - | - | - |
| 1778109005 | 2.78° C | 91% | 1012.3 hPa | 0 mm | - | - | - |
| 1778108405 | 2.78° C | 91% | 1012.3 hPa | 0 mm | - | - | - |
| 1778107805 | 2.78° C | 91% | 1012.3 hPa | 0 mm | - | - | - |
| 1778097005 | 3.33° C | 91% | 1011.8 hPa | 0.25 mm | - | - | - |
| 1778096405 | 3.33° C | 91% | 1011.6 hPa | 0 mm | - | - | - |
| 1778095205 | 3.33° C | 91% | 1011.5 hPa | 0 mm | - | - | - |
| 1778094605 | 3.33° C | 91% | 1011.5 hPa | 0 mm | - | - | - |
| 1778092805 | 3.33° C | 91% | 1011.4 hPa | 0 mm | - | - | - |
* Rain latest hour (hover to see other rain measurements)
** Current wind speed in m/s (hover to see current wind gust speed)